SCP
0 0 0 0 0 0 0 0 0 0 0 0 0 0 0 0 0 0 0 0 0 0 0 0 0 0 0 0 0 0 0 0 0 0 0 0 0 0 0 0 0 0 0
0 0 0 0 0 0 0 0 0 0 0 0 0 0 0 0 0 0 0 0 0 0 0 0 0 0 0 0 0 0 0 0 0 0 0 0 0 0 0 0 0 0 0
0 0 0 0 0 0 0 0 0 0 0 0 0 0 0 0 0 0 0 0 0 0 0 0 0 0 0 0 0 0 0 0 0 0 0 0 0 0 0 0 0 0 0
0 0 0 0 0 0 0 0 0 0 0 0 0 0 0 0 0 0 0 0 0 0 0 0 0 0 0 0 0 0 0 0 0 0 0 0 0 0 0 0 0 0 0
0 0 0 0 0 0 0 0 0 0 0 0 0 0 0 0 0 0 0 0 0 0 0 0 0 0 0 0 0 0 0 0 0 0 0 0 0 0 0 0 0 0 0
0 0 0 0 0 0 0 0 0 0 0 0 0 0 0 0 0 0 0 0 0 0 0 0 0 0 0 0 0 0 0 0 0 0 0 0 0 0 0 0 0 0 0
0 0 0 0 0 0 0 0 0 0 0 0 0 0 0 0 0 0 0 0 0 0 0 0 0 0 0 0 0 0 0 0 0 0 0 0 0 0 0 0 0 0 0
0 0 0 0 0 0 0 0 0 0 0 0 0 0 0 0 0 0 0 0 0 0 0 0 0 0 0 0 0 0 0 0 0 0 0 0 0 0 0 0 0 0 0
0 0 0 0 0 0 0 0 0 0 0 0 0 0 0 0 0 0 0 0 0 0 0 0 0 0 0 0 0 0 0 0 0 0 0 0 0 0 0 0 0 0 0
0 0 0 0 0 0 0 0 0 0 0 0 0 0 0 0 0 0 0 0 0 0 0 0 0 0 0 0 0 0 0 0 0 0 0 0 0 0 0 0 0 0 0
0 0 0 0 0 0 0 0 0 0 0 0 0 0 0 0 0 0 0 0 0 0 0 0 0 0 0 0 0 0 0 0 0 0 0 0 0 0 0 0 0 0 0
0 0 0 0 0 0 0 0 0 0 0 0 0 0 0 0 0 0 0 0 0 0 0 0 0 0 0 0 0 0 0 0 0 0 0 0 0 0 0 0 0 0 0
0 0 0 0 0 0 0 0 0 0 0 0 0 0 0 0 0 0 0 0 0 0 0 0 0 0 0 0 0 0 0 0 0 0 0 0 0 0 0 0 0 0 0
0 0 0 0 0 0 0 0 0 0 0 0 0 0 0 0 0 0 0 0 0 0 0 0 0 0 0 0 0 0 0 0 0 0 0 0 0 0 0 0 0 0 0
0 0 0 0 0 0 0 0 0 0 0 0 0 0 0 0 0 -0 -0 -0 -0 0 0 0 -0 -0 -0 0 0 0 0 0 0 0 0 0 0 0 0 0 0 0 0
0 0 0 0 0 0 0 0 0 0 0 0 0 0 0 0 0 0 0 0 0 0 0 0 -0 -0 -0 -0 -0 0 0 0 0 0 0 0 0 0 0 0 0 0 0
-0 -0 -0 -0 -0 0 0 0 0 0 0 0 0 0 0 0 0 0 0 0 0 0 0 0 0 0 -0 -0 0 0 0 0 0 0 0 0 0 0 0 0 0 0 0
-0 -0 -0 -0 0 0 0 0 0 -0 -0 0 0 0 0 0 0 0 0 0 0 0 0 0 0 0 0 0 0 0 0 0 0 0 0 0 0 0 0 0 0 0 0
-0 -0 -0 -0 -0 0 0 0 0 0 0 0 0 0 0 0 0 0 0 0 0 0 0 0 0 0 0 0 0 0 0 0 0 0 0 0 0 0 0 0 0 0 0
-0 -0 -0 -0 -0 0 0 0 0 0 0 0 0 0 0 0 0 0 0 0 0 0 0 0 0 0 0 0 0 0 0 0 0 0 0 0 0 0 0 0 0 0 0
-0 -0 -0 -0 -0 -0 -0 -0 -0 -0 0 0 0 0 -0 -0 0 0 0 0 0 0 0 0 0 0 0 0 0 0 0 0 0 0 0 0 0 0 0 0 0 0 0
0 0 0 -0 0 0 0 0 0 0 0 0 0 0 -0 0 0 0 0 0 0 0 0 0 0 0 0 0 0 0 0 0 0 0 0 0 0 0 0 0 0 0 0
0 0 0 0 0 0 0 0 0 0 0 0 0 0 0 0 0 0 0 0 0 0 0 0 0 0 0 0 0 0 0 0 0 0 0 0 0 0 0 0 0 0 0
0 0 0 0 0 0 0 0 0 0 0 0 0 0 0 0 0 0 0 0 0 0 0 0 0 0 0 0 0 0 0 0 0 0 0 0 0 0 0 0 0 0 0
0 0 0 0 0 0 0 0 0 0 0 0 0 0 0 0 0 0 0 0 0 0 0 0 0 0 0 0 0 0 0 0 0 0 0 0 0 0 0 0 0 0 0
0 0 0 0 0 0 0 0 0 0 0 0 0 0 0 0 0 0 0 0 0 0 0 0 0 0 0 0 0 0 0 0 0 0 0 0 0 0 0 0 0 0 0
Wind_Speed_500mb
34 32 30 27 25 26 26 26 26 28 28 29 29 31 33 36 38 41 45 48 50 47 43 45 51 53 59 62 65 68 70 68 78 103 92 86 82 79 80 78 75 80 83
28 27 27 26 24 22 21 22 23 26 29 31 33 36 38 40 42 42 44 46 47 48 48 49 51 50 50 51 55 60 69 69 71 86 91 97 91 88 91 86 86 83 79
27 27 26 25 25 25 26 28 30 31 33 35 36 37 39 41 42 45 45 44 44 44 44 45 47 47 51 57 64 66 59 56 53 70 89 90 87 84 87 84 90 79 88
29 32 31 30 29 30 31 32 33 36 37 38 39 40 41 43 47 48 46 44 43 43 43 42 41 40 42 44 48 51 61 74 80 82 91 88 77 79 71 87 80 98 96
29 32 32 32 33 33 35 37 39 41 42 43 42 42 43 43 49 48 47 44 42 40 39 39 39 41 41 42 44 44 46 50 54 64 80 95 98 85 75 79 84 85 91
30 32 33 33 34 36 38 39 40 41 43 42 41 39 36 35 40 40 40 38 37 38 38 38 37 37 38 39 42 44 46 48 50 53 62 71 81 76 82 92 100 99 99
31 33 34 33 35 37 39 42 41 40 41 40 38 38 35 34 38 41 42 40 40 38 39 41 40 38 40 42 45 47 47 44 48 49 56 57 69 63 65 69 66 72 88
32 34 35 36 36 36 36 39 41 42 41 41 39 36 38 35 38 41 43 44 44 42 42 43 46 45 41 44 48 52 51 48 48 48 55 60 62 62 57 65 74 86 96
31 35 37 39 39 40 40 40 43 44 44 45 46 41 40 34 36 41 46 50 52 51 50 51 51 52 49 51 55 60 59 51 56 56 55 57 57 55 45 53 61 63 78
32 35 37 40 42 42 43 44 45 48 50 43 43 44 45 40 35 41 46 51 57 57 59 56 56 57 53 55 60 65 73 64 63 63 64 61 59 53 48 40 49 54 59
30 32 33 34 34 36 36 39 41 43 46 47 48 45 43 44 42 40 44 49 54 61 63 63 61 60 60 59 59 61 65 71 71 67 68 67 64 58 51 37 42 49 53
29 31 33 36 38 41 45 44 43 47 51 51 51 52 48 46 46 46 53 55 57 61 68 68 67 66 65 63 62 63 64 64 69 70 69 67 64 63 60 51 42 43 49
29 32 34 35 38 42 43 45 47 47 48 51 53 59 63 63 58 53 58 65 63 64 72 76 77 78 72 71 66 66 66 66 62 65 69 65 65 66 62 58 51 45 46
35 37 39 42 45 47 47 48 50 51 54 58 64 71 75 75 75 71 69 73 74 78 85 89 86 87 84 78 75 71 68 63 61 62 66 70 72 67 67 54 55 50 51
40 42 44 47 50 52 50 52 54 52 52 57 60 63 73 82 77 64 66 75 78 80 85 97 98 99 98 93 87 79 70 66 65 64 66 69 69 72 66 64 52 49 48
48 50 51 53 54 55 58 62 56 55 51 52 51 52 62 62 65 66 67 70 71 71 84 94 101 102 104 99 95 86 78 72 71 73 70 68 71 67 60 58 61 47 47
48 50 51 52 54 56 59 62 70 68 63 62 61 59 58 61 63 66 68 70 69 70 80 92 98 100 101 93 84 92 93 85 81 77 77 75 70 65 66 60 53 57 52
46 47 50 53 55 57 59 62 66 72 77 78 70 68 65 63 63 62 65 71 80 77 82 89 93 94 96 95 95 95 98 94 88 88 85 78 71 67 67 69 60 60 57
45 45 46 47 48 50 54 58 63 69 74 79 82 76 72 73 71 67 64 72 84 89 90 92 92 94 96 99 102 100 99 100 97 91 90 86 79 70 71 71 70 66 62
43 44 45 46 48 51 55 60 64 67 72 75 77 78 77 74 77 80 84 89 92 95 95 96 96 95 95 96 97 100 101 96 89 85 85 90 84 64 66 67 66 69 66
43 42 41 45 49 53 57 61 64 67 71 75 78 75 68 66 79 85 93 96 96 99 102 102 102 100 96 91 89 90 95 98 89 83 78 76 75 80 77 67 65 77 75
50 53 53 54 56 59 62 64 67 70 74 80 84 82 74 79 86 95 103 103 99 97 98 99 102 103 102 97 88 86 86 87 86 81 77 76 81 82 73 72 81 62 74
54 56 57 58 60 63 66 68 71 74 78 81 84 86 86 91 99 107 108 105 102 101 98 97 99 102 101 100 98 93 91 89 84 79 77 73 69 69 78 84 76 79 59
56 57 59 59 60 63 66 69 71 73 77 80 82 84 91 99 108 108 106 106 104 102 101 100 100 100 99 98 97 97 97 94 86 81 79 79 77 72 67 71 68 76 59
56 57 58 60 62 65 69 71 74 76 79 81 84 88 96 105 109 108 111 110 108 106 104 103 103 100 98 96 94 92 89 88 86 84 85 85 86 83 78 77 73 78 69
58 59 60 61 63 64 67 70 73 75 78 78 79 87 99 107 109 111 116 114 110 108 106 105 103 99 97 94 91 86 80 76 74 70 71 75 79 82 81 77 75 75 73
Wind_Direction_500mb
233 231 233 232 232 232 236 241 245 250 256 260 264 268 269 268 266 263 262 263 264 266 268 268 270 271 272 274 278 281 281 280 276 286 286 287 290 288 294 292 290 290 288
229 230 231 231 229 229 237 249 257 264 270 274 275 275 275 275 276 275 273 272 275 276 276 274 269 270 270 274 278 283 285 282 279 283 287 288 291 294 291 288 292 294 290
227 228 226 228 234 245 258 266 270 272 274 277 278 278 278 278 278 277 280 282 282 283 283 285 286 282 279 274 268 267 268 274 282 286 288 294 292 294 292 292 293 287 297
228 231 236 242 250 257 262 263 266 269 271 273 277 278 279 279 279 281 282 282 283 285 288 288 289 290 291 291 287 282 276 270 270 272 276 279 287 294 292 291 289 291 290
242 244 246 250 255 260 263 268 270 271 273 274 275 277 278 278 277 279 279 279 281 284 287 290 294 297 299 297 295 294 291 288 287 284 281 278 282 286 287 290 293 299 299
249 253 256 259 260 261 264 265 268 270 271 271 271 272 274 274 276 278 280 282 283 283 286 289 294 299 303 305 303 304 307 307 303 299 299 297 298 296 295 288 286 287 287
259 262 264 266 268 268 268 265 264 265 267 267 265 261 262 267 271 271 274 277 278 281 287 293 297 302 305 306 305 307 308 312 312 313 304 299 299 300 295 291 296 290 287
257 263 268 272 274 274 276 278 278 275 275 278 273 267 264 265 270 272 277 281 282 284 286 289 293 296 299 298 299 300 304 309 309 309 309 315 311 307 299 294 293 287 282
274 277 283 287 289 289 284 283 282 281 281 285 286 281 276 274 277 278 282 285 285 286 288 291 293 295 297 296 297 299 302 308 310 308 306 309 316 323 317 307 305 299 293
297 300 302 302 303 305 306 307 301 293 285 285 291 290 287 283 279 290 290 287 285 288 288 290 292 294 298 299 302 306 307 312 310 308 305 305 310 318 325 313 310 303 298
315 313 312 311 311 309 312 313 314 309 301 298 301 302 297 297 289 289 301 295 293 294 292 292 291 293 292 294 298 301 306 309 307 308 309 308 306 308 315 313 310 309 305
313 313 311 310 310 306 306 309 315 317 314 312 307 304 305 301 300 299 299 303 302 298 297 294 294 290 289 291 295 298 301 303 305 306 308 306 306 309 311 315 312 306 305
321 316 315 315 314 313 312 308 305 302 306 310 310 305 305 307 308 306 299 296 296 300 294 296 295 294 292 290 291 293 294 297 300 301 304 304 303 305 307 311 313 313 307
326 325 326 327 322 320 316 315 312 311 310 310 308 306 307 306 308 313 307 305 301 299 298 299 298 297 298 295 293 291 293 293 294 295 298 302 305 303 303 310 309 314 312
333 332 333 330 328 326 325 325 321 318 317 314 312 310 309 307 309 311 309 306 306 304 302 297 297 299 299 300 298 296 292 290 290 291 293 296 298 301 298 301 304 306 306
338 339 338 335 332 330 327 323 323 323 319 312 312 310 306 304 307 307 303 301 301 302 298 295 294 296 298 300 299 296 291 288 286 289 288 288 291 294 292 292 295 295 295
343 343 341 339 338 335 332 330 328 325 326 327 327 322 316 311 309 307 304 303 301 299 290 292 294 295 296 297 292 291 291 289 289 283 284 285 286 284 286 284 283 285 288
344 344 342 341 338 335 335 334 334 334 332 333 334 332 331 323 315 311 310 309 306 308 304 301 299 297 295 293 292 290 290 289 286 285 283 280 278 276 276 274 273 273 274
341 342 340 337 337 335 334 333 333 332 330 330 331 333 333 327 322 322 322 318 317 315 312 307 303 299 295 294 292 291 288 287 288 285 282 280 278 274 271 270 268 267 268
341 341 338 335 335 333 332 331 329 329 328 328 328 330 329 327 327 325 321 318 314 313 310 304 301 299 297 294 291 290 288 286 283 281 280 279 277 271 268 267 263 260 263
331 331 329 330 330 328 326 325 325 325 325 325 325 328 325 310 312 315 316 315 312 310 309 306 302 297 294 290 286 284 284 284 281 278 277 276 268 266 257 253 266 261 260
329 332 333 331 330 329 327 326 324 324 326 326 326 326 326 318 318 317 318 316 313 310 308 303 300 298 296 290 284 280 277 276 276 276 274 272 273 275 271 265 249 264 252
329 328 327 329 328 326 325 325 324 325 326 326 325 325 326 324 322 321 318 314 309 306 304 299 294 291 292 291 288 280 276 273 272 273 273 272 270 263 261 259 262 247 260
324 324 323 323 324 324 323 323 324 326 326 326 327 326 326 326 325 322 320 315 310 306 302 298 296 295 294 292 290 286 280 276 273 270 270 270 270 271 270 267 255 259 258
326 323 321 322 323 323 323 325 325 326 327 328 327 328 329 328 327 324 322 320 314 310 308 304 300 299 298 296 294 291 287 284 278 273 268 265 266 266 265 262 261 259 244
329 328 325 322 321 321 322 322 324 326 326 326 326 329 331 331 329 328 327 322 316 313 311 308 304 301 300 298 296 294 290 286 282 277 272 268 265 265 265 262 262 259 260
Wind_Speed_850mb
34 32 30 27 25 26 26 26 26 28 28 29 29 31 33 36 38 41 45 48 50 47 43 45 51 53 59 62 65 68 70 68 78 103 92 86 82 79 80 78 75 80 83
28 27 27 26 24 22 21 22 23 26 29 31 33 36 38 40 42 42 44 46 47 48 48 49 51 50 50 51 55 60 69 69 71 86 91 97 91 88 91 86 86 83 79
27 27 26 25 25 25 26 28 30 31 33 35 36 37 39 41 42 45 45 44 44 44 44 45 47 47 51 57 64 66 59 56 53 70 89 90 87 84 87 84 90 79 88
29 32 31 30 29 30 31 32 33 36 37 38 39 40 41 43 47 48 46 44 43 43 43 42 41 40 42 44 48 51 61 74 80 82 91 88 77 79 71 87 80 98 96
29 32 32 32 33 33 35 37 39 41 42 43 42 42 43 43 49 48 47 44 42 40 39 39 39 41 41 42 44 44 46 50 54 64 80 95 98 85 75 79 84 85 91
30 32 33 33 34 36 38 39 40 41 43 42 41 39 36 35 40 40 40 38 37 38 38 38 37 37 38 39 42 44 46 48 50 53 62 71 81 76 82 92 100 99 99
31 33 34 33 35 37 39 42 41 40 41 40 38 38 35 34 38 41 42 40 40 38 39 41 40 38 40 42 45 47 47 44 48 49 56 57 69 63 65 69 66 72 88
32 34 35 36 36 36 36 39 41 42 41 41 39 36 38 35 38 41 43 44 44 42 42 43 46 45 41 44 48 52 51 48 48 48 55 60 62 62 57 65 74 86 96
31 35 37 39 39 40 40 40 43 44 44 45 46 41 40 34 36 41 46 50 52 51 50 51 51 52 49 51 55 60 59 51 56 56 55 57 57 55 45 53 61 63 78
32 35 37 40 42 42 43 44 45 48 50 43 43 44 45 40 35 41 46 51 57 57 59 56 56 57 53 55 60 65 73 64 63 63 64 61 59 53 48 40 49 54 59
30 32 33 34 34 36 36 39 41 43 46 47 48 45 43 44 42 40 44 49 54 61 63 63 61 60 60 59 59 61 65 71 71 67 68 67 64 58 51 37 42 49 53
29 31 33 36 38 41 45 44 43 47 51 51 51 52 48 46 46 46 53 55 57 61 68 68 67 66 65 63 62 63 64 64 69 70 69 67 64 63 60 51 42 43 49
29 32 34 35 38 42 43 45 47 47 48 51 53 59 63 63 58 53 58 65 63 64 72 76 77 78 72 71 66 66 66 66 62 65 69 65 65 66 62 58 51 45 46
35 37 39 42 45 47 47 48 50 51 54 58 64 71 75 75 75 71 69 73 74 78 85 89 86 87 84 78 75 71 68 63 61 62 66 70 72 67 67 54 55 50 51
40 42 44 47 50 52 50 52 54 52 52 57 60 63 73 82 77 64 66 75 78 80 85 97 98 99 98 93 87 79 70 66 65 64 66 69 69 72 66 64 52 49 48
48 50 51 53 54 55 58 62 56 55 51 52 51 52 62 62 65 66 67 70 71 71 84 94 101 102 104 99 95 86 78 72 71 73 70 68 71 67 60 58 61 47 47
48 50 51 52 54 56 59 62 70 68 63 62 61 59 58 61 63 66 68 70 69 70 80 92 98 100 101 93 84 92 93 85 81 77 77 75 70 65 66 60 53 57 52
46 47 50 53 55 57 59 62 66 72 77 78 70 68 65 63 63 62 65 71 80 77 82 89 93 94 96 95 95 95 98 94 88 88 85 78 71 67 67 69 60 60 57
45 45 46 47 48 50 54 58 63 69 74 79 82 76 72 73 71 67 64 72 84 89 90 92 92 94 96 99 102 100 99 100 97 91 90 86 79 70 71 71 70 66 62
43 44 45 46 48 51 55 60 64 67 72 75 77 78 77 74 77 80 84 89 92 95 95 96 96 95 95 96 97 100 101 96 89 85 85 90 84 64 66 67 66 69 66
43 42 41 45 49 53 57 61 64 67 71 75 78 75 68 66 79 85 93 96 96 99 102 102 102 100 96 91 89 90 95 98 89 83 78 76 75 80 77 67 65 77 75
50 53 53 54 56 59 62 64 67 70 74 80 84 82 74 79 86 95 103 103 99 97 98 99 102 103 102 97 88 86 86 87 86 81 77 76 81 82 73 72 81 62 74
54 56 57 58 60 63 66 68 71 74 78 81 84 86 86 91 99 107 108 105 102 101 98 97 99 102 101 100 98 93 91 89 84 79 77 73 69 69 78 84 76 79 59
56 57 59 59 60 63 66 69 71 73 77 80 82 84 91 99 108 108 106 106 104 102 101 100 100 100 99 98 97 97 97 94 86 81 79 79 77 72 67 71 68 76 59
56 57 58 60 62 65 69 71 74 76 79 81 84 88 96 105 109 108 111 110 108 106 104 103 103 100 98 96 94 92 89 88 86 84 85 85 86 83 78 77 73 78 69
58 59 60 61 63 64 67 70 73 75 78 78 79 87 99 107 109 111 116 114 110 108 106 105 103 99 97 94 91 86 80 76 74 70 71 75 79 82 81 77 75 75 73
Wind_Direction_850mb
233 231 233 232 232 232 236 241 245 250 256 260 264 268 269 268 266 263 262 263 264 266 268 268 270 271 272 274 278 281 281 280 276 286 286 287 290 288 294 292 290 290 288
229 230 231 231 229 229 237 249 257 264 270 274 275 275 275 275 276 275 273 272 275 276 276 274 269 270 270 274 278 283 285 282 279 283 287 288 291 294 291 288 292 294 290
227 228 226 228 234 245 258 266 270 272 274 277 278 278 278 278 278 277 280 282 282 283 283 285 286 282 279 274 268 267 268 274 282 286 288 294 292 294 292 292 293 287 297
228 231 236 242 250 257 262 263 266 269 271 273 277 278 279 279 279 281 282 282 283 285 288 288 289 290 291 291 287 282 276 270 270 272 276 279 287 294 292 291 289 291 290
242 244 246 250 255 260 263 268 270 271 273 274 275 277 278 278 277 279 279 279 281 284 287 290 294 297 299 297 295 294 291 288 287 284 281 278 282 286 287 290 293 299 299
249 253 256 259 260 261 264 265 268 270 271 271 271 272 274 274 276 278 280 282 283 283 286 289 294 299 303 305 303 304 307 307 303 299 299 297 298 296 295 288 286 287 287
259 262 264 266 268 268 268 265 264 265 267 267 265 261 262 267 271 271 274 277 278 281 287 293 297 302 305 306 305 307 308 312 312 313 304 299 299 300 295 291 296 290 287
257 263 268 272 274 274 276 278 278 275 275 278 273 267 264 265 270 272 277 281 282 284 286 289 293 296 299 298 299 300 304 309 309 309 309 315 311 307 299 294 293 287 282
274 277 283 287 289 289 284 283 282 281 281 285 286 281 276 274 277 278 282 285 285 286 288 291 293 295 297 296 297 299 302 308 310 308 306 309 316 323 317 307 305 299 293
297 300 302 302 303 305 306 307 301 293 285 285 291 290 287 283 279 290 290 287 285 288 288 290 292 294 298 299 302 306 307 312 310 308 305 305 310 318 325 313 310 303 298
315 313 312 311 311 309 312 313 314 309 301 298 301 302 297 297 289 289 301 295 293 294 292 292 291 293 292 294 298 301 306 309 307 308 309 308 306 308 315 313 310 309 305
313 313 311 310 310 306 306 309 315 317 314 312 307 304 305 301 300 299 299 303 302 298 297 294 294 290 289 291 295 298 301 303 305 306 308 306 306 309 311 315 312 306 305
321 316 315 315 314 313 312 308 305 302 306 310 310 305 305 307 308 306 299 296 296 300 294 296 295 294 292 290 291 293 294 297 300 301 304 304 303 305 307 311 313 313 307
326 325 326 327 322 320 316 315 312 311 310 310 308 306 307 306 308 313 307 305 301 299 298 299 298 297 298 295 293 291 293 293 294 295 298 302 305 303 303 310 309 314 312
333 332 333 330 328 326 325 325 321 318 317 314 312 310 309 307 309 311 309 306 306 304 302 297 297 299 299 300 298 296 292 290 290 291 293 296 298 301 298 301 304 306 306
338 339 338 335 332 330 327 323 323 323 319 312 312 310 306 304 307 307 303 301 301 302 298 295 294 296 298 300 299 296 291 288 286 289 288 288 291 294 292 292 295 295 295
343 343 341 339 338 335 332 330 328 325 326 327 327 322 316 311 309 307 304 303 301 299 290 292 294 295 296 297 292 291 291 289 289 283 284 285 286 284 286 284 283 285 288
344 344 342 341 338 335 335 334 334 334 332 333 334 332 331 323 315 311 310 309 306 308 304 301 299 297 295 293 292 290 290 289 286 285 283 280 278 276 276 274 273 273 274
341 342 340 337 337 335 334 333 333 332 330 330 331 333 333 327 322 322 322 318 317 315 312 307 303 299 295 294 292 291 288 287 288 285 282 280 278 274 271 270 268 267 268
341 341 338 335 335 333 332 331 329 329 328 328 328 330 329 327 327 325 321 318 314 313 310 304 301 299 297 294 291 290 288 286 283 281 280 279 277 271 268 267 263 260 263
331 331 329 330 330 328 326 325 325 325 325 325 325 328 325 310 312 315 316 315 312 310 309 306 302 297 294 290 286 284 284 284 281 278 277 276 268 266 257 253 266 261 260
329 332 333 331 330 329 327 326 324 324 326 326 326 326 326 318 318 317 318 316 313 310 308 303 300 298 296 290 284 280 277 276 276 276 274 272 273 275 271 265 249 264 252
329 328 327 329 328 326 325 325 324 325 326 326 325 325 326 324 322 321 318 314 309 306 304 299 294 291 292 291 288 280 276 273 272 273 273 272 270 263 261 259 262 247 260
324 324 323 323 324 324 323 323 324 326 326 326 327 326 326 326 325 322 320 315 310 306 302 298 296 295 294 292 290 286 280 276 273 270 270 270 270 271 270 267 255 259 258
326 323 321 322 323 323 323 325 325 326 327 328 327 328 329 328 327 324 322 320 314 310 308 304 300 299 298 296 294 291 287 284 278 273 268 265 266 266 265 262 261 259 244
329 328 325 322 321 321 322 322 324 326 326 326 326 329 331 331 329 328 327 322 316 313 311 308 304 301 300 298 296 294 290 286 282 277 272 268 265 265 265 262 262 259 260